Location: M�nchen
(48.1404°N, 11.6043°E)
Time: 10:33:45
(UTC+01:00)

OTV 5 (USA 277) - Visible Passes

Search period start: 16 January 2018 00:00
Search period end: 26 January 2018 00:00
Orbit: 404 x 417 km, 43.0° (Epoch: 07 September)

Date Brightness Start Highest point End Pass type
(mag) Time Alt. Az. Time Alt. Az. Time Alt. Az.
23 Jan ? 19:17:27 10° SSW 19:18:11 13° S 19:18:11 13° S visible
24 Jan ? 18:27:10 10° S 18:28:51 13° SSE 18:29:40 12° SE visible
25 Jan ? 19:11:45 10° SW 19:13:51 23° S 19:13:51 23° S visible
